Location: Recife
(8.0585°S, 34.8848°W)
Time: 09:48:10
(UTC-03:00)

Courier 1B Rocket - Pass Details

Date: 20 April 2026
Orbit: 920 x 1201 km, 28.2° (Epoch: 13 May)

Event Time Altitude Azimuth Distance (km) Brightness Sun altitude
Rises 11:02:51 0° 233° (SW) 3,889 8.0 69.9°
Reaches altitude 10° 11:05:40 10° 227° (SW) 2,972 7.5 70.0°
Maximum altitude 11:12:46 49° 154° (SSE) 1,465 6.5 70.2°
Drops below altitude 10° 11:20:12 10° 81° (E) 3,112 7.8 70.3°
Sets 11:23:11 0° 76° (ENE) 4,086 8.3 70.2°
